CW3467 Weather Reports


Display with metric or nautical units.
time (UTC)temp
F
wind
direction
speed
MPH
gust
MPH
rain 1hr
in
rain 24hr
in
rain mn
in
humidity
%
barometer
mb
20260903181503 88 260 2.0 7.0 0.00 0.00 0.00 44 1022.5
20260903181003 88 267 2.0 7.0 0.00 0.00 0.00 44 1022.3
20260903180503 89 248 2.0 6.0 0.00 0.00 0.00 44 1022.2
20260903180003 89 224 2.0 6.0 0.00 0.00 0.00 44 1022.3
20260903175503 90 232 2.0 6.0 0.00 0.00 0.00 44 1022.1
20260903175003 90 225 2.0 6.0 0.00 0.00 0.00 43 1022.1
20260903174503 91 231 2.0 7.0 0.00 0.00 0.00 42 1022.2
20260903174003 92 238 2.0 7.0 0.00 0.00 0.00 42 1022.1
20260903173524 93 219 1.0 6.0 0.00 0.00 0.00 39 1022.2
20260903173003 93 222 1.0 4.0 0.00 0.00 0.00 37 1022.2
20260903172503 94 230 1.0 6.0 0.00 0.00 0.00 37 1022.0
20260903172003 94 248 2.0 7.0 0.00 0.00 0.00 36 1022.0
20260903171503 94 266 1.0 7.0 0.00 0.00 0.00 35 1022.1
20260903171003 94 241 1.0 4.0 0.00 0.00 0.00 35 1021.9
20260903170503 95 187 1.0 4.0 0.00 0.00 0.00 34 1021.9
20260903170003 95 178 1.0 3.0 0.00 0.00 0.00 33 1022.1
20260903165503 96 224 1.0 7.0 0.00 0.00 0.00 33 1022.0
20260903165003 96 254 2.0 7.0 0.00 0.00 0.00 32 1022.1
20260903164524 96 248 2.0 4.0 0.00 0.00 0.00 32 1021.9
20260903164003 96 252 1.0 7.0 0.00 0.00 0.00 32 1022.1
20260903163503 97 253 1.0 7.0 0.00 0.00 0.00 31 1022.1
20260903163003 97 207 1.0 6.0 0.00 0.00 0.00 30 1022.1
20260903162503 97 211 1.0 6.0 0.00 0.00 0.00 29 1022.0
20260903162003 97 226 1.0 6.0 0.00 0.00 0.00 29 1022.1
20260903161503 98 265 1.0 6.0 0.00 0.00 0.00 29 1022.0
20260903161003 97 258 1.0 6.0 0.00 0.00 0.00 29 1022.3
20260903160503 98 230 1.0 4.0 0.00 0.00 0.00 28 1022.1
20260903160003 97 262 1.0 6.0 0.00 0.00 0.00 28 1022.1
20260903155503 97 271 2.0 6.0 0.00 0.00 0.00 29 1022.1
20260903155003 98 251 1.0 4.0 0.00 0.00 0.00 28 1022.0
20260903154503 99 236 1.0 3.0 0.00 0.00 0.00 27 1022.1
20260903154003 98 239 1.0 3.0 0.00 0.00 0.00 25 1022.2
20260903153503 98 218 1.0 7.0 0.00 0.00 0.00 26 1022.1
20260903153003 98 213 1.0 7.0 0.00 0.00 0.00 27 1022.4
20260903152524 98 220 1.0 6.0 0.00 0.00 0.00 26 1022.2
20260903152024 98 271 2.0 8.0 0.00 0.00 0.00 25 1022.3
20260903151503 97 318 2.0 8.0 0.00 0.00 0.00 27 1022.2
20260903151003 97 283 2.0 9.0 0.00 0.00 0.00 26 1022.4
20260903150503 97 278 3.0 9.0 0.00 0.00 0.00 26 1022.4
20260903150003 97 278 2.0 8.0 0.00 0.00 0.00 25 1022.4
20260903145503 98 284 2.0 7.0 0.00 0.00 0.00 23 1022.5
20260903145003 98 297 2.0 7.0 0.00 0.00 0.00 26 1022.4
20260903144524 99 323 2.0 7.0 0.00 0.00 0.00 25 1022.7
20260903144003 98 290 1.0 6.0 0.00 0.00 0.00 25 1022.8
20260903143504 98 226 2.0 6.0 0.00 0.00 0.00 25 1022.4
20260903143003 97 262 2.0 6.0 0.00 0.00 0.00 26 1022.5
20260903142503 96 316 3.0 8.0 0.00 0.00 0.00 26 1022.5
20260903142003 96 11 2.0 8.0 0.00 0.00 0.00 26 1022.7
20260903141503 98 266 2.0 7.0 0.00 0.00 0.00 24 1022.8
20260903141003 97 26 2.0 6.0 0.00 0.00 0.00 25 1022.7
20260903140503 97 69 2.0 7.0 0.00 0.00 0.00 24 1022.5
20260903140024 97 248 2.0 7.0 0.00 0.00 0.00 26 1022.5
20260903135503 98 273 2.0 8.0 0.00 0.00 0.00 26 1022.7
20260903135003 97 313 1.0 8.0 0.00 0.00 0.00 27 1022.8
20260903134524 96 272 2.0 8.0 0.00 0.00 0.00 28 1023.0
20260903134003 97 345 2.0 8.0 0.00 0.00 0.00 26 1023.2
20260903133503 96 325 2.0 9.0 0.00 0.00 0.00 27 1023.2
20260903133003 96 294 3.0 9.0 0.00 0.00 0.00 27 1023.3
20260903132503 95 279 3.0 8.0 0.00 0.00 0.00 28 1023.3
20260903132003 96 223 2.0 8.0 0.00 0.00 0.00 28 1023.1
20260903131503 97 182 1.0 6.0 0.00 0.00 0.00 28 1023.3
20260903131003 96 256 1.0 7.0 0.00 0.00 0.00 31 1023.3
20260903130524 95 277 2.0 7.0 0.00 0.00 0.00 32 1023.5
20260903130024 94 257 2.0 7.0 0.00 0.00 0.00 32 1023.4
20260903125503 95 250 1.0 7.0 0.00 0.00 0.00 33 1023.4
20260903125003 94 251 2.0 7.0 0.00 0.00 0.00 34 1023.7
20260903124503 94 259 1.0 4.0 0.00 0.00 0.00 35 1023.7
20260903124003 93 262 2.0 4.0 0.00 0.00 0.00 36 1023.7
20260903123503 92 255 2.0 4.0 0.00 0.00 0.00 37 1023.7
20260903123003 94 252 2.0 4.0 0.00 0.00 0.00 36 1023.9
20260903122503 92 257 1.0 7.0 0.00 0.00 0.00 37 1023.8
20260903122003 91 60 1.0 7.0 0.00 0.00 0.00 39 1023.7
20260903121503 92 261 1.0 6.0 0.00 0.00 0.00 39 1024.1
20260903121003 93 241 1.0 6.0 0.00 0.00 0.00 38 1024.1
20260903120524 93 202 1.0 7.0 0.00 0.00 0.00 39 1024.1
20260903120003 92 79 1.0 7.0 0.00 0.00 0.00 41 1024.1
20260903115503 91 257 1.0 4.0 0.00 0.00 0.00 41 1024.1
20260903115003 90 260 2.0 6.0 0.00 0.00 0.00 41 1024.2
20260903114524 90 262 1.0 6.0 0.00 0.00 0.00 42 1024.5
20260903114003 91 222 1.0 3.0 0.00 0.00 0.00 43 1024.4
20260903113503 89 73 1.0 6.0 0.00 0.00 0.00 44 1024.6
20260903113003 89 2 2.0 6.0 0.00 0.00 0.00 45 1024.4
20260903112524 88 24 1.0 4.0 0.00 0.00 0.00 47 1024.6
20260903112003 89 260 1.0 4.0 0.00 0.00 0.00 46 1024.5
20260903111524 89 241 1.0 3.0 0.00 0.00 0.00 48 1024.6
20260903111003 88 258 1.0 4.0 0.00 0.00 0.00 49 1024.7
20260903110503 88 256 1.0 4.0 0.00 0.00 0.00 48 1024.7
20260903110003 87 256 1.0 4.0 0.00 0.00 0.00 49 1025.0
20260903105503 85 271 1.0 4.0 0.00 0.00 0.00 53 1025.1
20260903105003 87 245 1.0 3.0 0.00 0.00 0.00 52 1025.0
20260903104503 86 249 1.0 3.0 0.00 0.00 0.00 52 1025.0
20260903104024 85 258 1.0 3.0 0.00 0.00 0.00 54 1025.1
20260903103503 85 249 1.0 3.0 0.00 0.00 0.00 53 1025.2
20260903103003 85 231 1.0 3.0 0.00 0.00 0.00 54 1025.2
20260903102503 83 245 1.0 3.0 0.00 0.00 0.00 56 1025.5
20260903102003 84 261 1.0 3.0 0.00 0.00 0.00 56 1025.5
20260903101503 84 244 1.0 3.0 0.00 0.00 0.00 56 1025.5
20260903101003 84 225 1.0 3.0 0.00 0.00 0.00 54 1025.5
20260903100503 81 39 1.0 4.0 0.00 0.00 0.00 59 1025.5
20260903100003 81 33 1.0 4.0 0.00 0.00 0.00 57 1025.6
20260903095503 81 71 1.0 3.0 0.00 0.00 0.00 56 1025.5
20260903095003 82 241 1.0 3.0 0.00 0.00 0.00 58 1025.7
20260903094503 82 249 1.0 3.0 0.00 0.00 0.00 57 1025.5
20260903094024 80 257 1.0 3.0 0.00 0.00 0.00 59 1025.6
20260903093503 81 252 1.0 2.0 0.00 0.00 0.00 60 1025.7
20260903093003 81 255 1.0 3.0 0.00 0.00 0.00 58 1025.7
20260903092503 80 259 1.0 3.0 0.00 0.00 0.00 60 1025.8
20260903092003 79 254 1.0 3.0 0.00 0.00 0.00 61 1025.8
20260903091503 78 255 1.0 3.0 0.00 0.00 0.00 61 1025.8
20260903091003 78 260 1.0 3.0 0.00 0.00 0.00 62 1025.7
20260903090524 78 257 1.0 4.0 0.00 0.00 0.00 63 1025.7
20260903090024 77 258 1.0 4.0 0.00 0.00 0.00 62 1025.6
20260903085503 78 248 1.0 3.0 0.00 0.00 0.00 61 1025.5
20260903085003 77 243 1.0 3.0 0.00 0.00 0.00 63 1025.6
20260903084524 77 243 1.0 3.0 0.00 0.00 0.00 64 1025.6
20260903084024 76 249 1.0 4.0 0.00 0.00 0.00 64 1025.7
20260903083524 76 240 1.0 4.0 0.00 0.00 0.00 65 1025.6
20260903083003 75 248 1.0 3.0 0.00 0.00 0.00 66 1025.7
20260903082503 75 255 1.0 3.0 0.00 0.00 0.00 67 1025.8
20260903082003 74 245 1.0 2.0 0.00 0.00 0.00 68 1025.7
20260903081503 74 243 1.0 2.0 0.00 0.00 0.00 67 1025.6
20260903081024 73 246 1.0 2.0 0.00 0.00 0.00 68 1025.8
20260903080503 74 244 1.0 2.0 0.00 0.00 0.00 69 1025.6
20260903080003 73 245 1.0 2.0 0.00 0.00 0.00 70 1025.5
20260903075503 72 249 1.0 2.0 0.00 0.00 0.00 70 1025.7
20260903075003 72 246 1.0 2.0 0.00 0.00 0.00 71 1025.7
20260903074503 71 241 1.0 3.0 0.00 0.00 0.00 73 1025.7
20260903074003 71 245 1.0 3.0 0.00 0.00 0.00 73 1025.7
20260903073503 70 244 1.0 2.0 0.00 0.00 0.00 75 1025.7
20260903073003 69 238 1.0 2.0 0.00 0.00 0.00 76 1025.8
20260903072503 69 236 1.0 2.0 0.00 0.00 0.00 75 1025.8
20260903072003 69 237 0.0 1.0 0.00 0.00 0.00 76 1025.6
20260903071503 68 0 0.0 0.0 0.00 0.00 0.00 77 1025.7
20260903071003 68 0 0.0 0.0 0.00 0.00 0.00 78 1025.8
20260903070524 67 230 0.0 1.0 0.00 0.00 0.00 78 1025.7
20260903070003 67 233 0.0 1.0 0.00 0.00 0.00 78 1025.8
20260903065503 67 233 0.0 1.0 0.00 0.00 0.00 80 1025.8
20260903065003 67 225 0.0 1.0 0.00 0.00 0.00 81 1025.8
20260903064503 67 225 1.0 2.0 0.00 0.00 0.00 81 1025.8
20260903064024 66 226 1.0 2.0 0.00 0.00 0.00 81 1025.8
20260903063503 66 224 0.0 1.0 0.00 0.00 0.00 81 1025.8
20260903063024 66 224 0.0 1.0 0.00 0.00 0.00 81 1025.7
20260903062503 66 224 0.0 1.0 0.00 0.00 0.00 81 1026.1
20260903062003 66 223 0.0 1.0 0.00 0.00 0.00 81 1025.7
20260903061503 66 223 0.0 1.0 0.00 0.00 0.00 81 1025.7
20260903061024 65 231 0.0 1.0 0.00 0.00 0.00 81 1025.6
20260903060503 65 231 0.0 1.0 0.00 0.00 0.00 82 1025.6
20260903060003 65 223 0.0 1.0 0.00 0.00 0.00 82 1025.4
20260903055503 65 225 0.0 2.0 0.00 0.00 0.00 81 1025.5
20260903055003 66 223 0.0 2.0 0.00 0.00 0.00 80 1025.4
20260903054503 66 203 0.0 1.0 0.00 0.00 0.00 80 1025.5
20260903054003 66 214 0.0 1.0 0.00 0.00 0.00 80 1025.3
20260903053503 66 223 0.0 1.0 0.00 0.00 0.00 80 1025.3
20260903053003 65 226 0.0 1.0 0.00 0.00 0.00 80 1025.2
20260903052524 66 225 1.0 1.0 0.00 0.00 0.00 80 1025.0
20260903052003 66 227 1.0 1.0 0.00 0.00 0.00 80 1025.2
20260903051503 66 226 1.0 1.0 0.00 0.00 0.00 80 1025.1
20260903051003 66 224 1.0 1.0 0.00 0.00 0.00 80 1025.0
20260903050503 66 223 0.0 1.0 0.00 0.00 0.00 80 1024.9
20260903050003 66 224 0.0 1.0 0.00 0.00 0.00 80 1024.9
20260903045503 66 223 0.0 1.0 0.00 0.00 0.00 79 1025.1
20260903045024 66 223 0.0 1.0 0.00 0.00 0.00 79 1025.0
20260903044503 66 223 0.0 2.0 0.00 0.00 0.00 79 1025.0
20260903044003 66 224 0.0 2.0 0.00 0.00 0.00 78 1025.0
20260903043503 66 223 0.0 1.0 0.00 0.00 0.00 78 1025.0
20260903043003 66 204 0.0 1.0 0.00 0.00 0.00 79 1024.9
20260903042503 66 204 0.0 1.0 0.00 0.00 0.00 78 1024.9
20260903042003 67 199 0.0 1.0 0.00 0.00 0.00 78 1024.7
20260903041503 67 217 0.0 1.0 0.00 0.00 0.00 77 1025.0
20260903041003 67 221 0.0 1.0 0.00 0.00 0.00 77 1025.0
20260903040503 67 222 0.0 1.0 0.00 0.00 0.00 77 1024.9
20260903040003 67 222 0.0 1.0 0.00 0.00 0.00 77 1025.0
20260903035503 67 217 0.0 1.0 0.00 0.00 0.00 77 1025.0
20260903035003 67 218 0.0 1.0 0.00 0.00 0.00 77 1024.8
20260903034503 67 220 0.0 1.0 0.00 0.00 0.00 77 1024.8
20260903034003 67 223 0.0 1.0 0.00 0.00 0.00 77 1024.9
20260903033503 67 224 0.0 1.0 0.00 0.00 0.00 77 1025.0
20260903033024 67 224 0.0 1.0 0.00 0.00 0.00 77 1025.0
20260903032503 67 223 0.0 1.0 0.00 0.00 0.00 77 1025.0
20260903032003 67 210 0.0 1.0 0.00 0.00 0.00 77 1025.2
20260903031503 68 216 0.0 1.0 0.00 0.00 0.00 76 1025.0
20260903031003 67 224 0.0 2.0 0.00 0.00 0.00 76 1024.9
20260903030524 67 224 0.0 2.0 0.00 0.00 0.00 76 1025.1
20260903030003 67 0 0.0 0.0 0.00 0.00 0.00 76 1025.0
20260903025503 68 0 0.0 0.0 0.00 0.00 0.00 75 1025.1
20260903025003 68 0 0.0 0.0 0.00 0.00 0.00 76 1025.0
20260903024503 68 0 0.0 0.0 0.00 0.00 0.00 75 1024.9
20260903024003 68 0 0.0 0.0 0.00 0.00 0.00 75 1024.8
20260903023503 68 0 0.0 0.0 0.00 0.00 0.00 75 1025.1
20260903023003 68 0 0.0 0.0 0.00 0.00 0.00 75 1025.0
20260903022524 68 0 0.0 0.0 0.00 0.00 0.00 76 1025.0
20260903022024 68 0 0.0 0.0 0.00 0.00 0.00 75 1024.9
20260903021503 68 0 0.0 0.0 0.00 0.00 0.00 75 1025.0
20260903021003 69 0 0.0 0.0 0.00 0.00 0.00 74 1025.0
20260903020503 69 0 0.0 0.0 0.00 0.00 0.00 74 1025.0
20260903020003 69 0 0.0 0.0 0.00 0.00 0.00 74 1025.0
20260903015503 69 221 0.0 1.0 0.00 0.00 0.00 74 1025.1
20260903015003 69 221 1.0 2.0 0.00 0.00 0.00 73 1025.0
20260903014503 69 222 1.0 2.0 0.00 0.00 0.00 73 1024.9
20260903014003 69 0 0.0 0.0 0.00 0.00 0.00 73 1025.0
20260903013524 69 0 0.0 0.0 0.00 0.00 0.00 74 1025.0
20260903013003 69 0 0.0 0.0 0.00 0.00 0.00 74 1024.9
20260903012503 69 0 0.0 0.0 0.00 0.00 0.00 73 1025.0
20260903012003 69 0 0.0 0.0 0.00 0.00 0.00 72 1024.9
20260903011503 70 199 0.0 1.0 0.00 0.00 0.00 71 1025.2
20260903011003 70 193 0.0 1.0 0.00 0.00 0.00 71 1025.0
20260903010503 71 191 0.0 1.0 0.00 0.00 0.00 70 1025.1
20260903010003 70 0 0.0 0.0 0.00 0.00 0.00 71 1024.9
20260903005503 70 0 0.0 0.0 0.00 0.00 0.00 72 1024.9
20260903005003 70 0 0.0 0.0 0.00 0.00 0.00 71 1025.1
20260903004524 70 0 0.0 0.0 0.00 0.00 0.00 71 1025.1
20260903004003 70 0 0.0 0.0 0.00 0.00 0.00 71 1025.0
20260903003524 70 0 0.0 0.0 0.00 0.00 0.00 70 1025.2
20260903003003 71 0 0.0 0.0 0.00 0.00 0.00 70 1024.9
20260903002503 71 221 0.0 1.0 0.00 0.00 0.00 69 1025.0
20260903002003 71 219 1.0 2.0 0.00 0.00 0.00 68 1025.0
20260903001503 71 220 1.0 2.0 0.00 0.00 0.00 68 1025.0
20260903001003 72 219 0.0 1.0 0.00 0.00 0.00 68 1024.9
20260903000503 72 168 0.0 1.0 0.00 0.00 0.00 68 1025.1
20260903000003 72 174 0.0 1.0 0.00 0.00 0.00 67 1025.0
20260902235503 72 223 0.0 1.0 0.00 0.00 0.00 68 1025.0
20260902235003 72 0 0.0 0.0 0.00 0.00 0.00 66 1025.1
20260902234503 72 0 0.0 0.0 0.00 0.00 0.00 67 1025.2
20260902234003 72 219 0.0 1.0 0.00 0.00 0.00 66 1024.9
20260902233503 72 219 0.0 1.0 0.00 0.00 0.00 66 1025.2
20260902233003 72 220 0.0 1.0 0.00 0.00 0.00 65 1025.1
20260902232503 72 220 0.0 1.0 0.00 0.00 0.00 65 1025.0
20260902232003 72 0 0.0 0.0 0.00 0.00 0.00 65 1024.8
20260902231503 73 219 0.0 1.0 0.00 0.00 0.00 65 1024.9
20260902231003 73 217 0.0 2.0 0.00 0.00 0.00 64 1024.7
20260902230503 74 216 1.0 2.0 0.00 0.00 0.00 62 1024.8
20260902230024 74 218 1.0 2.0 0.00 0.00 0.00 62 1024.7
20260902225524 74 221 1.0 2.0 0.00 0.00 0.00 62 1024.8
20260902225003 74 221 1.0 2.0 0.00 0.00 0.00 62 1024.7
20260902224503 75 220 1.0 2.0 0.00 0.00 0.00 62 1024.5
20260902224003 74 216 0.0 1.0 0.00 0.00 0.00 61 1024.5
20260902223503 74 215 0.0 1.0 0.00 0.00 0.00 62 1024.5
20260902223003 75 222 0.0 2.0 0.00 0.00 0.00 61 1024.2
20260902222503 75 220 1.0 2.0 0.00 0.00 0.00 60 1024.4
20260902222003 76 217 1.0 2.0 0.00 0.00 0.00 60 1024.2
20260902221503 75 219 0.0 2.0 0.00 0.00 0.00 60 1024.2
20260902221003 74 225 0.0 1.0 0.00 0.00 0.00 62 1024.1
20260902220503 75 226 0.0 1.0 0.00 0.00 0.00 61 1024.1
20260902220003 75 225 0.0 1.0 0.00 0.00 0.00 61 1024.1
20260902215503 76 226 0.0 1.0 0.00 0.00 0.00 60 1023.9
20260902215003 76 222 0.0 2.0 0.00 0.00 0.00 60 1023.7
20260902214503 77 220 1.0 2.0 0.00 0.00 0.00 58 1023.8
20260902214003 76 222 1.0 1.0 0.00 0.00 0.00 59 1023.8
20260902213503 77 223 1.0 2.0 0.00 0.00 0.00 59 1023.7
20260902213003 78 223 1.0 2.0 0.00 0.00 0.00 56 1023.6
20260902212503 78 215 0.0 2.0 0.00 0.00 0.00 56 1023.6
20260902212002 78 208 0.0 2.0 0.00 0.00 0.00 55 1023.6
20260902211502 78 208 1.0 3.0 0.00 0.00 0.00 55 1023.7
20260902211003 79 205 1.0 3.0 0.00 0.00 0.00 54 1023.5
20260902210503 79 214 0.0 2.0 0.00 0.00 0.00 55 1023.6
20260902210003 79 225 1.0 2.0 0.00 0.00 0.00 54 1023.6
20260902205524 79 212 1.0 3.0 0.00 0.00 0.00 54 1023.6
20260902205024 79 184 1.0 4.0 0.00 0.00 0.00 54 1023.6
20260902204503 79 186 1.0 4.0 0.00 0.00 0.00 53 1023.5
20260902204002 79 224 0.0 1.0 0.00 0.00 0.00 54 1023.6
20260902203503 80 205 1.0 2.0 0.00 0.00 0.00 53 1023.6
20260902203003 81 194 0.0 2.0 0.00 0.00 0.00 52 1023.1
20260902202502 81 214 0.0 2.0 0.00 0.00 0.00 51 1023.3
20260902202003 82 210 0.0 2.0 0.00 0.00 0.00 50 1023.0
20260902201503 82 224 0.0 2.0 0.00 0.00 0.00 50 1023.2
20260902201024 82 233 1.0 2.0 0.00 0.00 0.00 50 1023.0
20260902200502 82 227 1.0 2.0 0.00 0.00 0.00 49 1023.2
20260902200003 82 227 1.0 2.0 0.00 0.00 0.00 50 1023.2
20260902195524 82 230 1.0 2.0 0.00 0.00 0.00 50 1023.2
20260902195003 82 248 1.0 3.0 0.00 0.00 0.00 49 1022.9
20260902194503 83 254 2.0 3.0 0.00 0.00 0.00 49 1023.0
20260902194024 82 242 1.0 3.0 0.00 0.00 0.00 48 1023.1
20260902193503 82 226 1.0 3.0 0.00 0.00 0.00 49 1022.8
20260902193002 82 228 1.0 3.0 0.00 0.00 0.00 48 1022.8
20260902192502 82 231 1.0 2.0 0.00 0.00 0.00 49 1022.5
20260902192003 82 235 1.0 2.0 0.00 0.00 0.00 48 1022.4
20260902191503 82 230 1.0 2.0 0.00 0.00 0.00 49 1022.2
20260902191024 82 225 1.0 2.0 0.00 0.00 0.00 48 1022.3
20260902190503 83 224 1.0 1.0 0.00 0.00 0.00 48 1022.1
20260902190003 83 222 0.0 1.0 0.00 0.00 0.00 48 1022.2
20260902185503 83 224 0.0 2.0 0.00 0.00 0.00 48 1022.2
20260902185003 83 227 0.0 2.0 0.00 0.00 0.00 47 1022.1
20260902184503 83 227 0.0 2.0 0.00 0.00 0.00 47 1021.8
20260902184023 83 223 0.0 1.0 0.00 0.00 0.00 47 1021.9
20260902183503 84 225 0.0 1.0 0.00 0.00 0.00 47 1022.0
20260902183003 85 249 1.0 4.0 0.00 0.00 0.00 46 1021.9
20260902182502 85 252 2.0 4.0 0.00 0.00 0.00 45 1021.7
20260902182003 86 244 1.0 4.0 0.00 0.00 0.00 45 1021.7